• In Kazakhstan
  • List of Countries
  • For 7 days
  • Water Temperature
  • Weather Map
  • News
  • Weather Widgets
  • user-avatar
    Login

    Hourly Weather Reykjavík

    Today, 28 February, Friday

    Time Temperature Precipitation Wind Pressure Humidity
    00:00 -10°C° 0 mm 12 mps 739 mmHg 68%
    01:00 -9°C° 0 mm 14 mps 739 mmHg 74%
    02:00 -9°C° 0 mm 16 mps 738 mmHg 81%
    03:00 -8°C° 0.6 mm 14 mps 738 mmHg 83%
    04:00 -7°C° 0.6 mm 11 mps 737 mmHg 84%
    05:00 -5°C° 0.6 mm 9 mps 737 mmHg 85%
    06:00 -5°C° 0.1 mm 8 mps 737 mmHg 85%
    07:00 -6°C° 0.1 mm 7 mps 737 mmHg 85%
    08:00 -6°C° 0.1 mm 7 mps 737 mmHg 85%
    09:00 -6°C° 0.6 mm 8 mps 737 mmHg 84%
    10:00 -5°C° 0.6 mm 9 mps 736 mmHg 83%
    11:00 -4°C° 0.6 mm 10 mps 736 mmHg 82%
    12:00 -4°C° 0 mm 9 mps 736 mmHg 83%
    13:00 -2°C° 0 mm 7 mps 735 mmHg 83%
    14:00 -1°C° 0 mm 5 mps 735 mmHg 84%
    15:00 -2°C° 0 mm 5 mps 734 mmHg 85%
    16:00 -2°C° 0 mm 4 mps 734 mmHg 86%
    17:00 -2°C° 0 mm 3 mps 734 mmHg 87%
    18:00 -4°C° 0 mm 4 mps 734 mmHg 86%
    19:00 -4°C° 0 mm 4 mps 733 mmHg 86%
    20:00 -5°C° 0 mm 4 mps 733 mmHg 85%
    21:00 -5°C° 0 mm 4 mps 733 mmHg 84%
    22:00 -5°C° 0 mm 4 mps 733 mmHg 83%
    23:00 -5°C° 0 mm 4 mps 734 mmHg 82%

    Tomorrow, 29 February, Saturday

    Time Temperature Precipitation Wind Pressure Humidity
    00:00 -6°C° 0.2 mm 5 mps 734 mmHg 85%
    01:00 -6°C° 0.2 mm 5 mps 734 mmHg 87%
    02:00 -6°C° 0.2 mm 5 mps 734 mmHg 89%
    03:00 -6°C° 0.2 mm 6 mps 734 mmHg 88%
    04:00 -6°C° 0.2 mm 6 mps 734 mmHg 88%
    05:00 -6°C° 0.2 mm 6 mps 734 mmHg 88%
    06:00 -6°C° 0 mm 5 mps 734 mmHg 88%
    07:00 -5°C° 0 mm 4 mps 734 mmHg 88%
    08:00 -6°C° 0 mm 3 mps 734 mmHg 88%
    09:00 -5°C° 0 mm 3 mps 734 mmHg 86%
    10:00 -4°C° 0 mm 3 mps 734 mmHg 84%
    11:00 -2°C° 0 mm 2 mps 734 mmHg 82%
    12:00 -1°C° 0 mm 3 mps 733 mmHg 81%
    13:00 -1°C° 0 mm 3 mps 733 mmHg 81%
    14:00 0°C° 0 mm 3 mps 733 mmHg 81%
    15:00 -2°C° 0.2 mm 4 mps 732 mmHg 84%
    16:00 -2°C° 0.2 mm 4 mps 732 mmHg 88%
    17:00 -2°C° 0.2 mm 4 mps 732 mmHg 92%
    18:00 -2°C° 0.1 mm 4 mps 732 mmHg 89%
    19:00 -2°C° 0.1 mm 4 mps 732 mmHg 86%
    20:00 -2°C° 0.1 mm 4 mps 732 mmHg 83%
    21:00 -2°C° 0 mm 5 mps 732 mmHg 80%
    22:00 -2°C° 0 mm 6 mps 732 mmHg 76%
    23:00 -2°C° 0 mm 7 mps 732 mmHg 73%

    Day after tomorrow, 1 March, Sunday

    Time Temperature Precipitation Wind Pressure Humidity
    00:00 -3°C° 0 mm 7 mps 732 mmHg 72%
    01:00 -3°C° 0 mm 6 mps 732 mmHg 72%
    02:00 -3°C° 0 mm 6 mps 732 mmHg 71%
    03:00 -3°C° 0.1 mm 6 mps 732 mmHg 72%
    04:00 -2°C° 0.1 mm 5 mps 731 mmHg 72%
    05:00 -2°C° 0.1 mm 5 mps 731 mmHg 73%
    06:00 -2°C° 0.1 mm 5 mps 731 mmHg 73%
    07:00 -3°C° 0.1 mm 6 mps 731 mmHg 74%
    08:00 -3°C° 0.1 mm 6 mps 731 mmHg 74%
    09:00 -2°C° 0 mm 6 mps 731 mmHg 73%
    10:00 -2°C° 0 mm 6 mps 730 mmHg 72%
    11:00 -2°C° 0 mm 6 mps 730 mmHg 71%
    12:00 -1°C° 0 mm 8 mps 730 mmHg 73%
    13:00 -2°C° 0 mm 10 mps 729 mmHg 75%
    14:00 -1°C° 0 mm 12 mps 729 mmHg 77%
    15:00 -1°C° 0.4 mm 14 mps 729 mmHg 80%
    16:00 -2°C° 0.4 mm 16 mps 729 mmHg 83%
    17:00 -2°C° 0.4 mm 18 mps 729 mmHg 86%
    18:00 -2°C° 1.7 mm 18 mps 729 mmHg 87%
    19:00 -2°C° 1.7 mm 18 mps 730 mmHg 88%
    20:00 -3°C° 1.7 mm 18 mps 731 mmHg 89%
    21:00 -3°C° 1.7 mm 16 mps 732 mmHg 87%
    22:00 -3°C° 1.7 mm 15 mps 733 mmHg 85%
    23:00 -2°C° 1.7 mm 14 mps 734 mmHg 83%

    2 March, Monday

    Time Temperature Precipitation Wind Pressure Humidity
    00:00 -3°C° 1.8 mm 10 mps 735 mmHg 87%
    01:00 -2°C° 1.8 mm 7 mps 735 mmHg 91%
    02:00 -1°C° 1.8 mm 3 mps 736 mmHg 96%
    03:00 -1°C° 1.9 mm 3 mps 736 mmHg 96%
    04:00 -2°C° 1.9 mm 4 mps 737 mmHg 96%
    05:00 -3°C° 1.9 mm 4 mps 737 mmHg 97%
    06:00 -4°C° 1.7 mm 5 mps 738 mmHg 97%
    07:00 -2°C° 1.7 mm 5 mps 739 mmHg 97%
    08:00 -2°C° 1.7 mm 5 mps 739 mmHg 97%
    09:00 -2°C° 2.9 mm 5 mps 740 mmHg 97%
    10:00 -2°C° 2.9 mm 5 mps 740 mmHg 97%
    11:00 -2°C° 2.9 mm 5 mps 740 mmHg 97%
    12:00 -2°C° 3.9 mm 5 mps 741 mmHg 96%
    13:00 -2°C° 3.9 mm 4 mps 741 mmHg 96%
    14:00 -1°C° 3.9 mm 4 mps 741 mmHg 95%
    15:00 -1°C° 1.7 mm 4 mps 742 mmHg 95%
    16:00 -1°C° 1.7 mm 5 mps 742 mmHg 95%
    17:00 -1°C° 1.7 mm 5 mps 742 mmHg 96%
    18:00 -1°C° 1.7 mm 4 mps 742 mmHg 95%
    19:00 -1°C° 1.7 mm 4 mps 742 mmHg 94%
    20:00 0°C° 1.7 mm 3 mps 743 mmHg 93%
    21:00 -1°C° 1.8 mm 5 mps 743 mmHg 93%
    22:00 -2°C° 1.8 mm 6 mps 743 mmHg 93%
    23:00 -2°C° 1.8 mm 7 mps 743 mmHg 94%

    3 March, Tuesday

    Time Temperature Precipitation Wind Pressure Humidity
    00:00 -2°C° 1.8 mm 8 mps 743 mmHg 93%
    01:00 -2°C° 1.8 mm 8 mps 744 mmHg 93%
    02:00 -3°C° 1.8 mm 9 mps 744 mmHg 92%
    03:00 -3°C° 1.5 mm 9 mps 744 mmHg 91%
    04:00 -3°C° 1.5 mm 9 mps 744 mmHg 91%
    05:00 -3°C° 1.5 mm 9 mps 744 mmHg 90%
    06:00 -2°C° 1.4 mm 8 mps 744 mmHg 91%
    07:00 -2°C° 1.4 mm 8 mps 744 mmHg 92%
    08:00 -4°C° 1.4 mm 8 mps 744 mmHg 93%
    09:00 -3°C° 1.5 mm 7 mps 744 mmHg 94%
    10:00 -3°C° 1.5 mm 7 mps 744 mmHg 95%
    11:00 -3°C° 1.5 mm 7 mps 744 mmHg 96%
    12:00 -3°C° 1.3 mm 7 mps 744 mmHg 96%
    13:00 -3°C° 1.3 mm 6 mps 744 mmHg 96%
    14:00 -3°C° 1.3 mm 6 mps 743 mmHg 96%
    15:00 -2°C° 1.1 mm 5 mps 743 mmHg 95%
    16:00 -2°C° 1.1 mm 4 mps 743 mmHg 94%
    17:00 -1°C° 1.1 mm 3 mps 743 mmHg 92%
    18:00 -2°C° 0.2 mm 4 mps 743 mmHg 92%
    19:00 -3°C° 0.2 mm 4 mps 742 mmHg 91%
    20:00 -3°C° 0.2 mm 4 mps 742 mmHg 91%
    21:00 -3°C° 0.2 mm 4 mps 742 mmHg 92%
    22:00 -3°C° 0.2 mm 4 mps 742 mmHg 92%
    23:00 -4°C° 0.2 mm 4 mps 742 mmHg 93%

    4 March, Wednesday

    Time Temperature Precipitation Wind Pressure Humidity
    00:00 -5°C° 0.1 mm 4 mps 742 mmHg 93%
    01:00 -5°C° 0.1 mm 3 mps 741 mmHg 93%
    02:00 -6°C° 0.1 mm 3 mps 741 mmHg 93%
    03:00 -7°C° 0 mm 3 mps 741 mmHg 91%
    04:00 -6°C° 0 mm 2 mps 741 mmHg 90%
    05:00 -6°C° 0 mm 2 mps 741 mmHg 89%
    06:00 -7°C° 0 mm 2 mps 741 mmHg 88%
    07:00 -6°C° 0 mm 1 mps 741 mmHg 87%
    08:00 -6°C° 0 mm 1 mps 741 mmHg 85%
    09:00 -4°C° 0 mm 1 mps 741 mmHg 85%
    10:00 -2°C° 0 mm 1 mps 741 mmHg 84%
    11:00 -1°C° 0 mm 1 mps 741 mmHg 83%
    12:00 0°C° 0 mm 1 mps 741 mmHg 83%
    13:00 0°C° 0 mm 1 mps 741 mmHg 83%
    14:00 +1°C° 0 mm 1 mps 741 mmHg 83%
    15:00 0°C° 0 mm 1 mps 741 mmHg 82%
    16:00 -1°C° 0 mm 1 mps 741 mmHg 80%
    17:00 -2°C° 0 mm 1 mps 741 mmHg 79%
    18:00 -3°C° 0 mm 1 mps 741 mmHg 78%
    19:00 -4°C° 0 mm 1 mps 741 mmHg 77%
    20:00 -4°C° 0 mm 1 mps 741 mmHg 76%
    21:00 -6°C° 0 mm 1 mps 741 mmHg 77%
    22:00 -6°C° 0 mm 1 mps 741 mmHg 78%
    23:00 -6°C° 0 mm 1 mps 741 mmHg 78%
    Show more